Latest Weather Observations for Campania

IDT60901

Issued at 3:25 am EST Thursday 31 July 2014 (issued every 10 minutes, with the page automatically refreshed every 10 minutes)

About weather observations | Map of Hobart area stations | Latest observations for Hobart area | Other Formats
Station Details ID: 094212 Name: CAMPANIA (KINCORA) Lat: -42.69 Lon: 147.43 Height: 45.0 m
Data from the previous 72 hours. | See also: Recent months at Campania
Date/Time
EST
Tmp

°C
App
Tmp
°C
Dew
Point
°C
Rel
Hum
%
Delta-T

°C
Wind Press
QNH
hPa
Press
MSL
hPa
Rain
since
9 am
mm
Dir
 
Spd
km/h
Gust
km/h
Spd
kts
Gust
kts
31/03:00am 12.0 5.2 6.9 71 2.4 WNW 32 57 17 31 - - 1.6
31/02:51am 12.3 3.6 7.6 73 2.3 W 43 61 23 33 - - 1.2
31/02:40am 14.4 9.5 6.7 60 3.7 WNW 22 59 12 32 - - 0.6
31/02:30am 14.9 6.2 6.2 56 4.2 NNW 41 74 22 40 - - 0.6
31/02:23am 14.7 8.1 6.0 56 4.2 N 30 67 16 36 - - 0.6
31/02:00am 14.3 8.4 5.9 57 4.0 N 26 35 14 19 - - 0.6
31/01:30am 14.0 5.9 5.4 56 4.1 NNW 37 69 20 37 - - 0.6
31/01:00am 14.5 5.2 4.8 52 4.5 NNW 43 69 23 37 - - 0.6
31/12:30am 14.6 5.6 4.6 51 4.7 NNW 41 61 22 33 - - 0.6
31/12:00am 13.8 7.3 4.7 54 4.2 NNW 28 52 15 28 - - 0.6
 
Date/Time
EST
Tmp

°C
App
Tmp
°C
Dew
Point
°C
Rel
Hum
%
Delta-T

°C
Wind Press
QNH
hPa
Press
MSL
hPa
Rain
since
9 am
mm
Dir
 
Spd
km/h
Gust
km/h
Spd
kts
Gust
kts
30/11:30pm 14.2 6.8 3.9 50 4.7 NNW 32 50 17 27 - - 0.6
30/11:00pm 13.7 6.3 4.8 55 4.1 NNW 33 57 18 31 - - 0.6
30/10:30pm 14.4 6.6 4.7 52 4.5 NNW 35 54 19 29 - - 0.6
30/10:00pm 14.5 5.1 4.2 50 4.7 NW 43 74 23 40 - - 0.6
30/09:58pm 14.9 5.2 3.7 47 5.1 NW 44 74 24 40 - - 0.6
30/09:36pm 14.4 6.5 4.4 51 4.6 NNW 35 56 19 30 - - 0.6
30/09:30pm 14.3 6.4 4.6 52 4.5 NNW 35 50 19 27 - - 0.6
30/09:07pm 14.5 5.8 4.2 50 4.7 NNW 39 63 21 34 - - 0.6
30/09:00pm 14.3 6.1 4.6 52 4.5 NNW 37 52 20 28 - - 0.6
30/08:40pm 14.1 7.3 4.9 54 4.3 NNW 30 54 16 29 - - 0.6
30/08:30pm 13.1 6.7 5.3 59 3.6 N 28 44 15 24 - - 0.6
30/08:28pm 13.5 7.1 5.4 58 3.8 N 28 44 15 24 - - 0.6
30/08:00pm 11.9 8.0 5.3 64 3.1 N 15 24 8 13 - - 0.6
30/07:30pm 13.2 6.8 5.4 59 3.7 NNW 28 39 15 21 - - 0.6
30/07:00pm 12.9 6.9 5.3 60 3.5 NNW 26 43 14 23 - - 0.6
30/06:30pm 12.6 7.5 5.8 63 3.2 NNW 22 32 12 17 - - 0.6
30/06:00pm 13.4 6.2 6.0 61 3.5 NW 33 52 18 28 - - 0.6
30/05:33pm 13.1 7.1 6.9 66 3.0 NNW 28 54 15 29 - - 0.6
30/05:30pm 12.7 6.8 7.4 70 2.6 NNW 28 43 15 23 - - 0.6
30/05:07pm 12.1 6.2 7.4 73 2.3 NNW 28 46 15 25 - - 0.6
30/05:00pm 12.0 5.4 7.7 75 2.1 NNW 32 46 17 25 - - 0.6
30/04:30pm 12.7 6.7 7.0 68 2.8 NNW 28 46 15 25 - - 0.2
30/04:04pm 12.8 5.5 7.3 69 2.7 NW 35 54 19 29 - - 0.0
30/04:00pm 12.9 5.3 7.4 69 2.7 NW 37 54 20 29 - - 0.0
30/03:47pm 14.0 7.8 6.1 59 3.8 NW 28 48 15 26 - - 0.0
30/03:30pm 13.7 7.9 6.3 61 3.5 NW 26 43 14 23 - - 0.0
30/03:01pm 13.5 7.0 6.4 62 3.4 NW 30 48 16 26 - - 0.0
30/03:00pm 13.5 6.6 6.6 63 3.3 NW 32 48 17 26 - - 0.0
30/02:37pm 13.1 7.1 6.9 66 3.0 NW 28 46 15 25 - - 0.0
30/02:30pm 13.2 6.7 6.5 64 3.2 NW 30 46 16 25 - - 0.0
30/02:00pm 12.7 5.2 6.3 65 3.0 NW 35 57 19 31 - - 0.0
30/01:40pm 12.5 6.2 5.9 64 3.1 NW 28 50 15 27 - - 0.0
30/01:30pm 12.2 7.3 6.7 69 2.6 NW 22 41 12 22 - - 0.0
30/01:21pm 12.4 6.3 6.7 68 2.7 NW 28 46 15 25 - - 0.0
30/01:00pm 12.6 4.6 5.8 63 3.2 NW 37 52 20 28 - - 0.0
30/12:30pm 13.8 6.2 5.9 59 3.8 NNW 35 54 19 29 - - 0.0
30/12:00pm 13.4 5.0 5.8 60 3.6 NW 39 65 21 35 - - 0.0
30/11:30am 13.1 5.8 5.5 60 3.6 NW 33 52 18 28 - - 0.0
30/11:02am 13.3 6.1 5.7 60 3.6 NW 33 52 18 28 - - 0.0
30/11:00am 13.3 5.7 5.7 60 3.6 NW 35 52 19 28 - - 0.0
30/10:30am 13.5 5.8 5.4 58 3.8 NW 35 56 19 30 - - 0.0
30/10:01am 13.4 5.6 4.8 56 4.0 NW 35 59 19 32 - - 0.0
30/10:00am 13.3 5.5 4.7 56 4.0 NW 35 52 19 28 - - 0.0
30/09:30am 12.7 3.3 4.2 56 3.9 NW 43 65 23 35 - - 0.0
30/09:01am 12.0 4.4 4.0 58 3.6 NW 33 56 18 30 - - 0.0
30/09:00am 12.0 4.5 4.2 59 3.5 NW 33 50 18 27 - - 12.6
30/08:42am 11.8 4.6 3.1 55 3.8 NW 30 56 16 30 - - 12.6
30/08:30am 11.3 4.1 2.9 56 3.7 NNW 30 44 16 24 - - 12.6
30/08:03am 10.6 2.4 2.9 59 3.3 NW 35 54 19 29 - - 12.6
30/08:00am 10.7 3.1 2.8 58 3.4 NW 32 46 17 25 - - 12.6
30/07:32am 10.2 2.7 1.3 54 3.7 NNW 30 50 16 27 - - 12.6
30/07:30am 9.8 2.7 1.2 55 3.6 NNW 28 39 15 21 - - 12.6
30/07:00am 9.6 2.0 0.8 54 3.6 NW 30 46 16 25 - - 12.6
30/06:30am 9.6 2.8 1.0 55 3.5 NW 26 39 14 21 - - 12.6
30/06:25am 9.5 2.0 0.9 55 3.5 NW 30 48 16 26 - - 12.6
30/06:00am 9.2 3.0 2.1 61 3.0 NW 24 39 13 21 - - 12.6
30/05:30am 9.0 3.6 2.6 64 2.7 NW 20 35 11 19 - - 12.6
30/05:00am 8.5 3.8 3.4 70 2.2 NW 17 26 9 14 - - 12.4
30/04:30am 8.6 4.0 3.6 71 2.2 NW 17 28 9 15 - - 12.4
30/04:00am 8.0 4.8 5.1 82 1.3 W 11 19 6 10 - - 12.4
30/03:30am 8.6 3.9 5.0 78 1.6 WNW 19 32 10 17 - - 12.4
30/03:00am 8.0 4.0 5.1 82 1.3 N 15 22 8 12 - - 12.4
30/02:30am 7.9 5.0 4.5 79 1.5 W 9 17 5 9 - - 11.8
30/02:00am 7.7 4.7 4.1 78 1.6 NW 9 17 5 9 - - 11.6
30/01:30am 8.0 2.5 4.0 76 1.7 NW 22 37 12 20 - - 11.4
30/01:00am 7.8 0.9 4.6 80 1.4 WNW 30 54 16 29 - - 11.0
30/12:52am 8.5 1.9 4.3 75 1.8 WNW 28 54 15 29 - - 10.2
30/12:30am 8.6 5.6 4.0 73 2.0 NW 9 19 5 10 - - 9.8
30/12:00am 8.9 3.0 4.1 72 2.1 W 24 39 13 21 - - 9.6
 
Date/Time
EST
Tmp

°C
App
Tmp
°C
Dew
Point
°C
Rel
Hum
%
Delta-T

°C
Wind Press
QNH
hPa
Press
MSL
hPa
Rain
since
9 am
mm
Dir
 
Spd
km/h
Gust
km/h
Spd
kts
Gust
kts
29/11:30pm 9.8 3.9 3.8 66 2.6 SW 24 39 13 21 - - 7.6
29/11:00pm 8.3 2.4 4.1 75 1.8 N 24 33 13 18 - - 7.6
29/10:30pm 9.2 1.2 3.8 69 2.4 WNW 35 57 19 31 - - 7.6
29/10:01pm 11.1 1.6 1.9 53 3.9 NW 41 59 22 32 - - 7.2
29/10:00pm 11.2 1.4 2.0 53 3.9 NW 43 69 23 37 - - 7.2
29/09:59pm 11.3 1.2 1.8 52 4.0 NW 44 69 24 37 - - 7.2
29/09:56pm 11.5 2.0 1.7 51 4.2 N 41 69 22 37 - - 7.2
29/09:34pm 12.9 5.5 -0.4 40 5.5 NW 28 56 15 30 - - 7.2
29/09:30pm 13.0 6.5 0.1 41 5.4 NW 24 35 13 19 - - 7.2
29/09:17pm 12.7 5.3 -0.9 39 5.5 WNW 28 46 15 25 - - 7.2
29/09:00pm 11.9 6.0 1.5 49 4.4 W 22 46 12 25 - - 7.2
29/08:30pm 11.8 4.1 3.3 56 3.8 W 33 69 18 37 - - 7.2
29/08:27pm 12.4 4.8 2.6 51 4.3 W 32 69 17 37 - - 7.2
29/08:00pm 12.0 3.1 3.0 54 4.0 NW 39 65 21 35 - - 7.2
29/07:30pm 11.7 4.6 3.5 57 3.6 NW 30 54 16 29 - - 7.2
29/07:00pm 10.3 3.5 5.3 71 2.3 NW 30 48 16 26 - - 7.2
29/06:59pm 10.4 3.7 5.4 71 2.3 NW 30 48 16 26 - - 7.2
29/06:49pm 9.8 4.4 6.2 78 1.7 NW 24 69 13 37 - - 7.2
29/06:42pm 10.8 1.4 5.6 70 2.4 W 44 69 24 37 - - 6.6
29/06:41pm 11.0 2.6 5.7 70 2.5 W 39 54 21 29 - - 6.4
29/06:30pm 11.3 6.9 6.6 73 2.2 NW 19 26 10 14 - - 6.4
29/06:25pm 11.0 6.7 6.9 76 1.9 NW 19 30 10 16 - - 6.4
29/06:04pm 12.9 3.9 6.3 64 3.1 WNW 43 65 23 35 - - 5.6
29/06:00pm 13.3 6.7 6.2 62 3.4 NW 30 57 16 31 - - 5.6
29/05:42pm 13.8 5.8 5.9 59 3.8 NNW 37 72 20 39 - - 5.6
29/05:30pm 12.8 5.8 6.8 67 2.9 NNW 33 48 18 26 - - 5.6
29/05:13pm 12.8 6.9 7.5 70 2.6 NNW 28 59 15 32 - - 5.6
29/05:00pm 11.9 7.6 7.8 76 2.0 NNW 20 33 11 18 - - 5.4
29/04:30pm 11.1 6.0 7.6 79 1.7 NNW 24 37 13 20 - - 5.2
29/04:00pm 11.5 4.8 7.4 76 2.0 N 32 50 17 27 - - 3.0
29/03:30pm 12.9 6.2 5.6 61 3.4 NNW 30 50 16 27 - - 2.6
29/03:28pm 12.9 6.6 5.8 62 3.3 NNW 28 50 15 27 - - 2.6
29/03:00pm 12.7 4.9 6.7 67 2.9 NNW 37 50 20 27 - - 2.6
29/02:30pm 12.6 5.6 6.0 64 3.1 NW 32 59 17 32 - - 2.6
29/02:28pm 12.7 5.7 5.8 63 3.2 NW 32 50 17 27 - - 2.6
29/02:00pm 12.8 6.8 5.5 61 3.4 NW 26 46 14 25 - - 2.6
29/01:30pm 12.1 4.9 5.0 62 3.3 NW 32 52 17 28 - - 2.6
29/01:14pm 11.7 4.4 5.3 65 3.0 NNW 33 52 18 28 - - 2.6
29/01:00pm 10.5 6.2 5.1 69 2.5 NNW 17 35 9 19 - - 2.6
29/12:39pm 9.9 3.6 5.9 76 1.8 NW 28 48 15 26 - - 2.6
29/12:30pm 9.8 3.6 6.2 78 1.7 NW 28 43 15 23 - - 2.4
29/12:20pm 9.9 3.5 6.8 81 1.5 NW 30 48 16 26 - - 2.2
29/12:00pm 10.7 5.1 7.2 79 1.7 NW 26 44 14 24 - - 1.6
29/11:30am 11.1 6.7 7.2 77 1.9 WNW 20 33 11 18 - - 1.0
29/11:00am 11.6 6.4 7.3 75 2.1 NW 24 35 13 19 - - 0.8
29/10:30am 12.9 7.0 7.4 69 2.7 NW 28 50 15 27 - - 0.8
29/10:06am 12.4 6.5 7.3 71 2.5 NW 28 56 15 30 - - 0.8
29/10:00am 12.6 7.6 8.1 74 2.2 NW 24 35 13 19 - - 0.6
29/09:30am 14.3 8.6 6.6 60 3.7 N 26 37 14 20 - - 0.0
29/09:00am 14.4 7.9 6.3 58 3.9 NNW 30 44 16 24 - - 0.6
29/08:30am 12.9 8.1 7.4 69 2.7 NNW 22 39 12 21 - - 0.6
29/08:00am 11.9 5.4 8.0 77 1.9 N 32 41 17 22 - - 0.6
29/07:30am 12.3 5.5 6.8 69 2.6 N 32 43 17 23 - - 0.4
29/07:00am 11.4 6.7 7.7 78 1.8 N 22 35 12 19 - - 0.4
29/06:30am 12.2 5.7 6.5 68 2.7 N 30 46 16 25 - - 0.0
29/06:13am 13.0 5.9 5.7 61 3.4 N 32 52 17 28 - - 0.0
29/06:00am 12.5 5.5 5.9 64 3.1 N 32 46 17 25 - - 0.0
29/05:30am 12.3 5.2 5.7 64 3.1 N 32 46 17 25 - - 0.0
29/05:13am 12.5 6.1 5.0 60 3.5 N 28 46 15 25 - - 0.0
29/05:00am 12.1 5.9 4.3 59 3.5 N 26 44 14 24 - - 0.0
29/04:30am 10.7 5.9 5.5 70 2.4 N 20 28 11 15 - - 0.0
29/04:00am 10.0 5.4 5.6 74 2.0 N 19 28 10 15 - - 0.0
29/03:30am 10.1 4.3 6.1 76 1.9 N 26 37 14 20 - - 0.0
29/03:00am 9.9 4.4 5.9 76 1.8 N 24 32 13 17 - - 0.0
29/02:30am 9.6 4.0 5.4 75 1.9 N 24 32 13 17 - - 0.0
29/02:00am 9.7 3.3 5.1 73 2.1 N 28 35 15 19 - - 0.0
29/01:30am 9.9 3.1 4.9 71 2.3 N 30 37 16 20 - - 0.0
29/01:00am 9.3 3.6 4.9 74 2.0 N 24 33 13 18 - - 0.0
29/12:30am 9.4 4.6 4.8 73 2.1 NNE 19 24 10 13 - - 0.0
29/12:00am 9.7 4.4 4.9 72 2.2 NNE 22 32 12 17 - - 0.0
 
Date/Time
EST
Tmp

°C
App
Tmp
°C
Dew
Point
°C
Rel
Hum
%
Delta-T

°C
Wind Press
QNH
hPa
Press
MSL
hPa
Rain
since
9 am
mm
Dir
 
Spd
km/h
Gust
km/h
Spd
kts
Gust
kts
28/11:30pm 9.8 4.1 5.0 72 2.2 N 24 30 13 16 - - 0.0
28/11:00pm 10.0 3.9 4.8 70 2.3 N 26 32 14 17 - - 0.0
28/10:30pm 11.4 4.8 4.4 62 3.2 N 28 41 15 22 - - 0.0
28/10:00pm 11.5 6.5 4.5 62 3.2 N 20 28 11 15 - - 0.0
28/09:30pm 11.8 6.8 4.5 61 3.3 NNW 20 37 11 20 - - 0.0
28/09:00pm 10.9 5.5 4.6 65 2.8 N 22 28 12 15 - - 0.0
28/08:30pm 11.4 6.5 4.2 61 3.2 NNW 19 28 10 15 - - 0.0
28/08:00pm 12.4 7.4 3.6 55 3.9 NNW 19 32 10 17 - - 0.0
28/07:30pm 12.7 7.5 3.6 54 4.1 NW 20 32 11 17 - - 0.0
28/07:00pm 12.2 7.5 2.9 53 4.1 NW 17 28 9 15 - - 0.0
28/06:30pm 13.6 7.8 2.5 47 4.9 NNW 22 32 12 17 - - 0.0
28/06:00pm 13.4 7.2 2.3 47 4.9 NNW 24 32 13 17 - - 0.0
28/05:30pm 12.7 7.9 2.8 51 4.4 NNW 17 20 9 11 - - 0.0
28/05:00pm 13.0 8.6 2.8 50 4.5 NW 15 20 8 11 - - 0.0
28/04:30pm 14.5 9.0 1.8 42 5.6 NW 20 32 11 17 - - 0.0
28/04:00pm 15.1 9.7 2.6 43 5.6 NW 20 28 11 15 - - 0.0
28/03:30pm 15.8 9.9 1.5 38 6.3 WNW 22 39 12 21 - - 0.0
28/03:00pm 16.1 9.5 1.8 38 6.3 WNW 26 41 14 22 - - 0.0
28/02:42pm 16.1 8.9 0.7 35 6.7 WNW 28 48 15 26 - - 0.0
28/02:30pm 16.1 8.1 0.7 35 6.7 WNW 32 46 17 25 - - 0.0
28/02:10pm 16.2 9.1 1.5 37 6.5 NW 28 46 15 25 - - 0.0
28/02:00pm 16.3 9.6 3.4 42 5.9 NW 28 41 15 22 - - 0.0
28/01:30pm 16.1 10.7 4.5 46 5.5 WNW 22 39 12 21 - - 0.0
28/01:00pm 15.5 10.0 3.9 46 5.4 WNW 22 35 12 19 - - 0.0
28/12:30pm 15.3 9.7 5.5 52 4.7 WNW 24 37 13 20 - - 0.0
28/12:00pm 15.0 9.2 6.3 56 4.2 NW 26 39 14 21 - - 0.0
28/11:30am 14.1 8.1 5.2 55 4.2 NW 26 39 14 21 - - 0.0
28/11:19am 14.4 8.1 5.5 55 4.2 NW 28 46 15 25 - - 0.0
28/11:00am 14.9 7.7 5.1 52 4.6 NW 32 44 17 24 - - 0.0
28/10:51am 15.3 8.9 5.2 51 4.8 NW 28 56 15 30 - - 0.0
28/10:30am 14.8 8.7 4.8 51 4.7 NW 26 39 14 21 - - 0.0
28/10:00am 14.9 10.0 4.9 51 4.7 NNW 20 28 11 15 - - 0.0
28/09:30am 14.4 9.1 5.0 53 4.4 NW 22 35 12 19 - - 0.0
28/09:00am 13.8 9.7 6.2 60 3.6 N 17 24 9 13 - - 0.0
28/08:30am 12.9 8.9 6.7 66 3.0 N 17 22 9 12 - - 0.0
28/08:00am 12.8 8.2 5.5 61 3.4 NNW 19 24 10 13 - - 0.0
28/07:30am 11.4 6.8 6.7 73 2.2 N 20 26 11 14 - - 0.0
28/07:00am 13.2 9.9 6.5 64 3.2 NW 13 24 7 13 - - 0.0
28/06:30am 13.4 10.2 6.7 64 3.2 NNW 13 20 7 11 - - 0.0
28/06:00am 12.2 8.8 7.5 73 2.3 NNW 15 26 8 14 - - 0.0
28/05:30am 12.7 8.3 7.2 69 2.7 N 20 30 11 16 - - 0.0
28/05:00am 12.7 7.5 7.2 69 2.7 N 24 32 13 17 - - 0.0
28/04:30am 12.7 7.1 7.2 69 2.7 N 26 39 14 21 - - 0.0
28/04:00am 12.2 8.3 6.9 70 2.5 NNW 17 30 9 16 - - 0.0
28/03:30am 10.6 7.1 5.4 70 2.4 N 13 20 7 11 - - 0.0

Latest Capital City Observations: Canberra | Sydney | Melbourne | Brisbane | Adelaide | Perth | Hobart | Darwin

Other Formats:

Comma delimited format used in spreadsheet applications
http://www.bom.gov.au/fwo/IDT60901/IDT60901.95972.axf

JavaScript Object Notation format (JSON) in row-major order
http://www.bom.gov.au/fwo/IDT60901/IDT60901.95972.json